FW5359 Weather Reports


time (UTC)temp
F
wind
direction
speed
knots
gust
knots
rain 1hr
in
rain 24hr
in
rain mn
in
humidity
%
barometer
mb
20260906014428 88 115 0.0 0.0 0.00 0.00 0.00 53 1012.5
20260906013926 88 115 0.0 0.0 0.00 0.00 0.00 54 1012.4
20260906013426 89 115 0.0 0.0 0.00 0.00 0.00 53 1012.4
20260906012926 89 115 0.0 0.0 0.00 0.00 0.00 53 1012.4
20260906012424 89 115 0.0 0.0 0.00 0.00 0.00 52 1012.4
20260906011924 89 115 0.0 0.0 0.00 0.00 0.00 52 1012.2
20260906011424 90 115 0.0 0.0 0.00 0.00 0.00 51 1012.2
20260906011155 90 115 0.0 0.0 0.00 0.00 0.00 51 1012.1
20260906005919 90 115 0.0 0.9 0.00 0.00 0.00 51 1012.1
20260906005419 91 115 0.0 2.6 0.00 0.00 0.00 51 1012.1
20260906004919 91 115 0.9 2.6 0.00 0.00 0.00 50 1012.2
20260906004420 91 115 0.9 3.5 0.00 0.00 0.00 50 1012.1
20260906003919 91 113 0.9 3.5 0.00 0.00 0.00 50 1012.1
20260906003422 91 123 0.9 3.5 0.00 0.00 0.00 50 1012.1
20260906002922 92 123 0.9 4.3 0.00 0.00 0.00 50 1012.1
20260906002422 92 123 1.7 5.2 0.00 0.00 0.00 50 1012.1
20260906001923 92 114 1.7 5.2 0.00 0.00 0.00 50 1012.0
20260906001416 92 121 1.7 6.1 0.00 0.00 0.00 50 1011.9
20260906001145 92 98 2.6 7.8 0.00 0.00 0.00 50 1011.9
20260906000414 92 94 2.6 7.8 0.00 0.00 0.00 50 1012.0
20260905235914 93 91 2.6 7.8 0.00 0.00 0.00 49 1011.9
20260905235418 93 115 2.6 7.8 0.00 0.00 0.00 49 1011.9
20260905234914 94 94 2.6 7.8 0.00 0.00 0.00 49 1011.9
20260905234414 94 104 1.7 7.0 0.00 0.00 0.00 49 1011.8
20260905233914 94 126 1.7 5.2 0.00 0.00 0.00 48 1011.9
20260905233414 94 115 1.7 6.1 0.00 0.00 0.00 48 1011.8
20260905232913 94 116 0.9 6.1 0.00 0.00 0.00 48 1012.0
20260905232644 94 106 1.7 6.1 0.00 0.00 0.00 47 1012.0
20260905231914 94 106 1.7 6.1 0.00 0.00 0.00 47 1012.0
20260905231413 95 144 1.7 6.1 0.00 0.00 0.00 47 1011.9
20260905231144 95 134 1.7 6.1 0.00 0.00 0.00 47 1012.0
20260905225916 95 27 0.9 6.1 0.00 0.00 0.00 47 1012.1
20260905225409 95 123 1.7 3.5 0.00 0.00 0.00 47 1012.0
20260905225135 95 118 1.7 5.2 0.00 0.00 0.00 47 1012.0
20260905224357 95 90 1.7 6.1 0.00 0.00 0.00 48 1012.1
20260905223851 94 150 1.7 6.1 0.00 0.00 0.00 48 1012.1
20260905223346 94 130 0.9 3.5 0.00 0.00 0.00 48 1012.2
20260905222840 93 113 0.9 3.5 0.00 0.00 0.00 49 1012.2
20260905222334 93 113 0.9 5.2 0.00 0.00 0.00 49 1012.2
20260905221827 93 113 1.7 5.2 0.00 0.00 0.00 49 1012.2
20260905221321 94 82 1.7 4.3 0.00 0.00 0.00 51 1012.1
20260905220816 94 80 1.7 4.3 0.00 0.00 0.00 51 1012.1
20260905220310 95 87 2.6 7.0 0.00 0.00 0.00 50 1012.1
20260905215258 96 118 2.6 7.0 0.00 0.00 0.00 48 1012.1
20260905214752 96 63 1.7 7.0 0.00 0.00 0.00 47 1012.1
20260905214246 97 166 1.7 7.0 0.00 0.00 0.00 49 1012.1
20260905213739 96 170 1.7 7.0 0.00 0.00 0.00 48 1012.2
20260905213234 96 194 1.7 4.3 0.00 0.00 0.00 49 1012.4
20260905212728 96 253 1.7 6.1 0.00 0.00 0.00 49 1012.5
20260905212221 95 204 1.7 6.1 0.00 0.00 0.00 50 1012.5
20260905211947 95 103 1.7 5.2 0.00 0.00 0.00 52 1012.5
20260905211441 94 161 0.9 5.2 0.00 0.00 0.00 52 1012.7
20260905210704 93 138 0.9 6.1 0.00 0.00 0.00 53 1012.7
20260905210158 94 193 1.7 6.1 0.00 0.00 0.00 52 1012.7
20260905205652 94 126 0.9 4.3 0.00 0.00 0.00 51 1012.8
20260905205416 94 167 1.7 8.7 0.00 0.00 0.00 51 1012.9
20260905204639 93 167 1.7 8.7 0.00 0.00 0.00 50 1013.0
20260905204133 94 71 2.6 6.1 0.00 0.00 0.00 52 1013.0
20260905203627 94 153 1.7 7.0 0.00 0.00 0.00 51 1013.1
20260905203122 94 80 1.7 7.0 0.00 0.00 0.00 51 1013.2
20260905202616 94 304 1.7 7.0 0.00 0.00 0.00 51 1013.3
20260905202340 94 114 2.6 7.8 0.00 0.00 0.00 51 1013.4
20260905201604 94 171 3.5 7.8 0.00 0.00 0.00 51 1013.5
20260905201058 94 116 2.6 8.7 0.00 0.00 0.00 49 1013.6
20260905200823 95 196 1.7 8.7 0.00 0.00 0.00 50 1013.5
20260905200046 95 104 1.7 7.0 0.00 0.00 0.00 51 1013.6
20260905195545 95 127 2.6 7.8 0.00 0.00 0.00 50 1013.7
20260905195045 95 250 1.7 7.8 0.00 0.00 0.00 48 1013.9
20260905194815 94 217 1.7 7.0 0.00 0.00 0.00 48 1013.9
20260905194043 93 279 1.7 6.1 0.00 0.00 0.00 54 1014.0
20260905193543 92 298 2.6 6.1 0.00 0.00 0.00 54 1014.1
20260905193043 92 128 1.7 7.8 0.00 0.00 0.00 55 1014.2
20260905192543 92 171 1.7 7.8 0.00 0.00 0.00 54 1014.4
20260905192041 92 177 2.6 7.8 0.00 0.00 0.00 54 1014.5
20260905191538 92 178 1.7 7.8 0.00 0.00 0.00 53 1014.7
20260905191038 92 242 0.9 7.0 0.00 0.00 0.00 56 1014.7
20260905190539 92 153 1.7 7.0 0.00 0.00 0.00 56 1014.9
20260905190039 92 165 1.7 6.1 0.00 0.00 0.00 56 1014.9
20260905185539 91 159 2.6 7.0 0.00 0.00 0.00 57 1015.0
20260905185309 91 164 2.6 7.0 0.00 0.00 0.00 56 1015.2
20260905184535 91 134 1.7 7.0 0.00 0.00 0.00 59 1015.3
20260905183534 92 124 1.7 7.8 0.00 0.00 0.00 58 1015.4
20260905183032 92 166 2.6 6.1 0.00 0.00 0.00 60 1015.4
20260905182529 91 109 1.7 6.1 0.00 0.00 0.00 60 1015.3
20260905182029 91 171 1.7 6.1 0.00 0.00 0.00 59 1015.5
20260905181529 91 167 1.7 6.1 0.00 0.00 0.00 59 1015.5
20260905181028 91 142 1.7 5.2 0.00 0.00 0.00 60 1015.6
20260905180529 90 182 1.7 7.0 0.00 0.00 0.00 60 1015.7
20260905180029 90 86 2.6 7.8 0.00 0.00 0.00 62 1015.7
20260905175529 90 67 1.7 7.8 0.00 0.00 0.00 63 1015.7
20260905175306 90 127 1.7 6.1 0.00 0.00 0.00 63 1015.9
20260905174529 89 206 1.7 7.0 0.00 0.00 0.00 64 1015.9
20260905174028 89 227 1.7 7.0 0.00 0.00 0.00 65 1015.9
20260905173529 89 96 1.7 7.0 0.00 0.00 0.00 65 1015.9
20260905173029 88 132 1.7 6.1 0.00 0.00 0.00 66 1016.0
20260905172529 88 128 1.7 5.2 0.00 0.00 0.00 66 1016.1
20260905172029 88 114 0.9 5.2 0.00 0.00 0.00 67 1016.2
20260905171529 88 169 1.7 5.2 0.00 0.00 0.00 69 1016.3
20260905171028 87 176 1.7 6.1 0.00 0.00 0.00 70 1016.3
20260905170757 87 126 0.9 6.1 0.00 0.00 0.00 72 1016.3
20260905170027 86 125 1.7 5.2 0.00 0.00 0.00 72 1016.4
20260905165520 86 126 1.7 5.2 0.00 0.00 0.00 73 1016.4
20260905165013 86 126 1.7 5.2 0.00 0.00 0.00 73 1016.5
20260905164508 86 150 1.7 6.1 0.00 0.00 0.00 73 1016.4
20260905164003 86 107 1.7 6.1 0.00 0.00 0.00 73 1016.4
20260905163456 86 123 1.7 6.1 0.00 0.00 0.00 74 1016.5
20260905162950 86 122 1.7 5.2 0.00 0.00 0.00 75 1016.5
20260905162715 85 136 0.9 5.2 0.00 0.00 0.00 75 1016.5
20260905161938 85 161 0.9 5.2 0.00 0.00 0.00 77 1016.6
20260905161432 85 161 1.7 6.1 0.00 0.00 0.00 77 1016.6
20260905161157 85 158 1.7 6.1 0.00 0.00 0.00 77 1016.7
20260905160420 85 155 1.7 6.1 0.00 0.00 0.00 77 1016.6
20260905155914 84 250 1.7 7.0 0.00 0.00 0.00 78 1016.6
20260905155408 83 146 1.7 7.0 0.00 0.00 0.00 78 1016.7
20260905154902 83 233 1.7 6.1 0.00 0.00 0.00 80 1016.5
20260905154356 83 232 1.7 6.1 0.00 0.00 0.00 79 1016.6
20260905153849 83 201 1.7 6.1 0.00 0.00 0.00 80 1016.5
20260905153344 83 164 0.9 6.1 0.00 0.00 0.00 80 1016.4
20260905153109 82 207 0.9 5.2 0.00 0.00 0.00 80 1016.4
20260905152332 82 221 1.7 7.0 0.00 0.00 0.00 80 1016.3
20260905151826 82 149 1.7 7.0 0.00 0.00 0.00 80 1016.4
20260905151320 82 157 1.7 5.2 0.00 0.00 0.00 81 1016.3
20260905150813 82 184 1.7 5.2 0.00 0.00 0.00 81 1016.3
20260905150307 82 254 0.9 5.2 0.00 0.00 0.00 81 1016.4
20260905145256 82 148 0.9 3.5 0.00 0.00 0.00 82 1016.4
20260905144750 82 209 0.9 3.5 0.00 0.00 0.00 83 1016.3
20260905144244 81 211 0.9 4.3 0.00 0.00 0.00 83 1016.3
20260905143738 81 215 0.9 4.3 0.00 0.00 0.00 84 1016.3
20260905143232 81 179 0.0 2.6 0.00 0.00 0.00 85 1016.4
20260905142726 80 178 0.9 2.6 0.00 0.00 0.00 85 1016.3
20260905142220 80 178 0.9 2.6 0.00 0.00 0.00 86 1016.3
20260905141714 80 178 0.9 2.6 0.00 0.00 0.00 86 1016.3
20260905141208 80 180 0.9 2.6 0.00 0.00 0.00 86 1016.3
20260905140702 80 180 0.9 2.6 0.00 0.00 0.00 86 1016.2
20260905140428 80 180 0.9 2.6 0.00 0.00 0.00 87 1016.1
20260905135650 79 180 0.9 2.6 0.00 0.00 0.00 87 1016.0
20260905135144 79 180 0.9 2.6 0.00 0.00 0.00 87 1016.1
20260905134637 79 179 0.9 4.3 0.00 0.00 0.00 87 1016.0
20260905134131 79 177 0.9 4.3 0.00 0.00 0.00 87 1016.0
20260905133626 79 184 0.9 3.5 0.00 0.00 0.00 87 1016.0
20260905133120 79 184 0.9 3.5 0.00 0.00 0.00 87 1015.9
20260905132614 79 159 0.9 3.5 0.00 0.00 0.00 87 1015.9
20260905132108 79 160 0.9 3.5 0.00 0.00 0.00 88 1015.9
20260905131602 78 160 0.0 3.5 0.00 0.00 0.00 88 1015.8
20260905131326 78 159 0.0 3.5 0.00 0.00 0.00 89 1015.8
20260905130550 78 160 0.0 3.5 0.00 0.00 0.00 89 1015.6
20260905130043 78 159 0.0 3.5 0.00 0.00 0.00 89 1015.6
20260905125544 78 159 0.0 1.7 0.00 0.00 0.00 89 1015.6
20260905125042 77 159 0.0 1.7 0.00 0.00 0.00 89 1015.6
20260905124540 77 159 0.0 1.7 0.00 0.00 0.00 89 1015.5
20260905124038 77 159 0.0 1.7 0.00 0.00 0.00 89 1015.5
20260905123538 77 159 0.0 0.9 0.00 0.00 0.00 89 1015.4
20260905123310 77 159 0.0 0.9 0.00 0.00 0.00 89 1015.3
20260905122536 77 159 0.0 1.7 0.00 0.00 0.00 89 1015.3
20260905122034 77 159 0.0 1.7 0.00 0.00 0.00 89 1015.3
20260905121806 77 159 0.0 1.7 0.00 0.00 0.00 89 1015.3
20260905121034 77 159 0.0 1.7 0.00 0.00 0.00 89 1015.2
20260905120804 77 159 0.0 1.7 0.00 0.00 0.00 89 1015.2
20260905120030 78 159 0.0 0.9 0.00 0.00 0.00 89 1015.3
20260905115528 78 159 0.0 0.9 0.00 0.00 0.00 89 1015.3
20260905115025 78 159 0.0 0.0 0.00 0.00 0.00 89 1015.2
20260905114524 78 159 0.0 0.0 0.00 0.00 0.00 89 1015.2
20260905114022 78 159 0.0 0.0 0.00 0.00 0.00 89 1015.2
20260905113520 78 159 0.0 0.0 0.00 0.00 0.00 89 1015.0
20260905113251 78 159 0.0 0.0 0.00 0.00 0.00 88 1015.0
20260905112520 78 159 0.0 0.0 0.00 0.00 0.00 88 1014.9
20260905112020 78 159 0.0 3.5 0.00 0.00 0.00 88 1015.2
20260905111519 78 159 0.9 3.5 0.00 0.00 0.00 88 1015.0
20260905111020 78 159 0.0 3.5 0.00 0.00 0.00 88 1014.9
20260905110520 78 161 0.0 0.9 0.00 0.00 0.00 88 1014.9
20260905110020 78 161 0.0 3.5 0.00 0.00 0.00 88 1014.9
20260905105520 78 161 0.0 3.5 0.00 0.00 0.00 88 1014.9
20260905105020 78 161 0.0 1.7 0.00 0.00 0.00 88 1014.8
20260905104520 78 160 0.0 1.7 0.00 0.00 0.00 88 1014.9
20260905104020 78 161 0.0 1.7 0.00 0.00 0.00 88 1014.9
20260905103520 78 160 0.0 1.7 0.00 0.00 0.00 88 1014.9
20260905103020 78 160 0.0 1.7 0.00 0.00 0.00 88 1014.9
20260905102753 78 160 0.0 3.5 0.00 0.00 0.00 88 1014.9
20260905101518 78 160 0.0 1.7 0.00 0.00 0.00 88 1014.8
20260905101021 78 160 0.9 3.5 0.00 0.00 0.00 88 1014.8
20260905100516 78 160 0.9 3.5 0.00 0.00 0.00 88 1014.8
20260905100016 78 160 0.9 4.3 0.00 0.00 0.00 88 1014.8
20260905095516 78 160 0.9 4.3 0.00 0.00 0.00 88 1014.8
20260905095013 78 160 0.9 3.5 0.00 0.00 0.00 88 1014.8
20260905094007 78 160 0.0 1.7 0.00 0.00 0.00 88 1014.8
20260905093501 78 160 0.0 1.7 0.00 0.00 0.00 88 1014.8
20260905092955 78 160 0.0 0.9 0.00 0.00 0.00 88 1014.7
20260905092449 78 160 0.0 0.0 0.00 0.00 0.00 88 1014.9
20260905091943 78 160 0.0 0.0 0.00 0.00 0.00 88 1014.7
20260905091436 78 160 0.0 1.7 0.00 0.00 0.00 88 1014.6
20260905090931 78 160 0.0 3.5 0.00 0.00 0.00 88 1014.7
20260905090425 78 160 0.9 3.5 0.00 0.00 0.00 88 1014.6
20260905085919 78 160 0.9 3.5 0.00 0.00 0.00 88 1014.7
20260905085413 78 160 0.9 3.5 0.00 0.00 0.00 88 1014.7
20260905084907 78 160 0.0 3.5 0.00 0.00 0.00 87 1014.6
20260905084401 78 160 0.0 2.6 0.00 0.00 0.00 87 1014.6
20260905083855 78 160 0.0 1.7 0.00 0.00 0.00 87 1014.8
20260905083621 78 160 0.0 2.6 0.00 0.00 0.00 87 1014.8
20260905082843 78 160 0.0 2.6 0.00 0.00 0.00 87 1014.8
20260905082337 78 160 0.0 3.5 0.00 0.00 0.00 86 1014.9
20260905081830 78 160 0.0 3.5 0.00 0.00 0.00 86 1014.9
20260905081324 79 160 0.0 1.7 0.00 0.00 0.00 86 1014.9
20260905080818 79 160 0.0 1.7 0.00 0.00 0.00 85 1014.8
20260905080313 79 160 0.0 4.3 0.00 0.00 0.00 85 1014.9
20260905075807 79 160 0.9 4.3 0.00 0.00 0.00 85 1015.0
20260905075301 79 161 0.9 4.3 0.00 0.00 0.00 85 1015.0
20260905074755 79 161 0.9 4.3 0.00 0.00 0.00 85 1014.9
20260905074249 79 159 0.9 4.3 0.00 0.00 0.00 85 1015.0
20260905074015 79 159 0.0 3.5 0.00 0.00 0.00 85 1015.2
20260905073237 79 159 0.9 3.5 0.00 0.00 0.00 85 1015.2
20260905072730 79 162 0.9 4.3 0.00 0.00 0.00 84 1015.3
20260905072225 79 162 0.9 6.1 0.00 0.00 0.00 84 1015.4
20260905071718 79 159 0.9 6.1 0.00 0.00 0.00 84 1015.5
20260905071213 80 155 1.7 5.2 0.00 0.00 0.00 84 1015.4
20260905070707 80 155 0.9 5.2 0.00 0.00 0.00 84 1015.5
20260905070201 80 152 0.9 5.2 0.00 0.00 0.00 84 1015.4
20260905065925 80 150 1.7 4.3 0.00 0.00 0.00 83 1015.4
20260905065149 80 161 0.9 4.3 0.00 0.00 0.00 83 1015.5
20260905064643 80 143 0.9 2.6 0.00 0.00 0.00 83 1015.5
20260905064408 80 143 0.9 4.3 0.00 0.00 0.00 83 1015.5
20260905063631 80 142 1.7 4.3 0.00 0.00 0.00 82 1015.4
20260905063126 80 171 0.9 4.3 0.00 0.00 0.00 82 1015.5
20260905062620 80 155 0.9 6.1 0.00 0.00 0.00 82 1015.5
20260905062343 80 157 0.9 6.1 0.00 0.00 0.00 81 1015.5
20260905061607 80 165 1.7 5.2 0.00 0.00 0.00 81 1015.5
20260905061332 80 202 1.7 7.0 0.00 0.00 0.00 81 1015.5
20260905060556 81 126 1.7 7.8 0.00 0.00 0.00 80 1015.5
20260905060049 81 161 1.7 7.8 0.00 0.00 0.00 80 1015.5
20260905055543 81 153 1.7 7.0 0.00 0.00 0.00 79 1015.5
20260905055037 81 200 2.6 7.8 0.00 0.00 0.00 79 1015.5
20260905054531 81 170 2.6 7.8 0.00 0.00 0.00 78 1015.4
20260905054025 81 128 1.7 6.1 0.00 0.00 0.00 78 1015.5
20260905053519 81 155 1.7 6.1 0.00 0.00 0.00 77 1015.5
20260905053244 82 122 0.9 4.3 0.00 0.00 0.00 76 1015.5
20260905052738 82 165 1.7 4.3 0.00 0.00 0.00 76 1015.5
20260905052001 82 165 1.7 4.3 0.00 0.00 0.00 75 1015.6
20260905051727 82 166 1.7 5.2 0.00 0.00 0.00 74 1015.6
20260905051219 82 167 1.7 5.2 0.00 0.00 0.00 74 1015.5
20260905050443 82 169 1.7 8.7 0.00 0.00 0.00 73 1015.6
20260905045937 83 169 1.7 8.7 0.00 0.00 0.00 73 1015.5
20260905045432 83 150 1.7 6.1 0.00 0.00 0.00 72 1015.5
20260905045156 83 148 1.7 5.2 0.00 0.00 0.00 71 1015.5
20260905044420 83 184 2.6 9.6 0.00 0.00 0.00 70 1015.5
20260905043914 83 128 2.6 9.6 0.00 0.00 0.00 70 1015.6
20260905043407 83 151 1.7 7.0 0.00 0.00 0.00 69 1015.5
20260905043134 83 130 1.7 5.2 0.00 0.00 0.00 69 1015.5
20260905042356 83 148 1.7 6.1 0.00 0.00 0.00 69 1015.5
20260905041850 83 155 1.7 6.1 0.00 0.00 0.00 69 1015.5
20260905041616 83 128 1.7 5.2 0.00 0.00 0.00 69 1015.5
20260905040839 83 119 1.7 5.2 0.00 0.00 0.00 69 1015.3
20260905040332 83 113 0.9 3.5 0.00 0.00 0.00 69 1015.4
20260905035826 83 113 0.9 3.5 0.00 0.00 0.00 69 1015.5
20260905035320 83 113 0.9 3.5 0.00 0.00 0.00 69 1015.5
20260905034814 83 112 0.9 2.6 0.00 0.00 0.00 68 1015.4
20260905034308 83 112 1.7 5.2 0.00 0.00 0.00 68 1015.5
20260905033802 83 112 1.7 5.2 0.00 0.00 0.00 68 1015.4
20260905033256 84 110 1.7 5.2 0.00 0.00 0.00 68 1015.4
20260905032750 84 107 2.6 10.4 0.00 0.00 0.00 68 1015.3
20260905032244 83 131 1.7 10.4 0.00 0.00 0.00 68 1015.2
20260905031738 83 137 1.7 7.0 0.00 0.00 0.00 68 1015.2
20260905031503 83 120 1.7 7.0 0.00 0.00 0.00 69 1015.2
20260905030726 83 109 0.9 2.6 0.00 0.00 0.00 69 1015.0
20260905030220 83 110 0.9 3.5 0.00 0.00 0.00 69 1015.0
20260905025944 83 110 0.9 5.2 0.00 0.00 0.00 69 1015.0
20260905025208 83 108 1.7 6.1 0.00 0.00 0.00 69 1014.9
20260905024702 83 109 1.7 6.1 0.00 0.00 0.00 69 1014.8
20260905023650 83 118 1.7 6.1 0.00 0.00 0.00 69 1014.6
20260905023144 83 119 0.9 5.2 0.00 0.00 0.00 69 1014.5
20260905022644 83 91 0.9 5.2 0.00 0.00 0.00 69 1014.3
20260905022144 83 88 0.9 2.6 0.00 0.00 0.00 69 1014.4
20260905021644 83 88 0.9 2.6 0.00 0.00 0.00 69 1014.3
20260905021414 83 87 0.9 2.6 0.00 0.00 0.00 70 1014.2
20260905020642 83 87 0.0 1.7 0.00 0.00 0.00 70 1014.1
20260905020142 83 88 0.0 2.6 0.00 0.00 0.00 69 1014.0
20260905015645 83 88 0.9 2.6 0.00 0.00 0.00 69 1014.0
20260905015142 83 88 0.9 2.6 0.00 0.00 0.00 69 1014.0